User: anonymous   Login
Location: Unspecified
(0.0000°N, 0.0000°E)
Time: 06:59:49
(UTC+00:00)
Language:

HO-68 - Orbit

View from above orbital plane
View from above orbital plane
View from above satellite
View from above satellite

Ground track
Ground track

The orbit data is extracted from the following two-line orbital elements,

1 36122U 09072B   19082.71034874 -.00000014 +00000-0 +74584-4 0  9994
2 36122 100.0745 089.1814 0007691 180.3348 179.7769 13.16349134445435
Epoch (UTC): 23 March 2019 17:02:54
Eccentricity: 0.0007691
inclination: 100.0745°
perigee height: 1193 km
apogee height: 1204 km
right ascension of ascending node: 89.1814°
argument of perigee: 180.3348°
revolutions per day: 13.16349134
mean anomaly at epoch: 179.7769°
orbit number at epoch: 44543

The dashed part of the orbit path shows where the satellite is in the earth's shadow,  

DLR